M I D A S
Marine Information and Data Acquisition System
Tripno 1904 of the Zeeleeuw from 2010-06-22 06:24:34 to 2010-06-22 16:58:46
Back to CruiseResearch ActivitiesStationsMapUnderway DataData graphs

EquipmentUnitsComments
TimeDGPSUTC
LatitudeDGPSDM.mWGS84
LongitudeDGPSDM.mWGS84
SpeedMeteo Stationm/sRelative wind speed
DirectionMeteo StationdegRelative wind direction
TemperatureMeteo Stationdeg CelciusAir temperature
PressureMeteo StationPaAtmospheric pressure
HumidityMeteo Station%Relative humidity
Missing or incorrect values are displayed as -999
Metereological data collected by the RV Zeeleeuw from 2010-06-22 06:13:07 to 2010-06-22 17:06:19
                                                                                    Next 1000 lines
Time Latitude Longitude Speed Direction Temperature Pressure Humidity
2010-06-22 06:13:17 51°13.661 2°55.959 -999 4 12.8 102430 40
2010-06-22 06:13:22 51°13.662 2°55.957 -999 4 12.8 102430 40
2010-06-22 06:13:27 51°13.662 2°55.955 -999 11 12.8 102430 40
2010-06-22 06:13:32 51°13.663 2°55.952 -999 11 12.8 102430 40
2010-06-22 06:13:37 51°13.664 2°55.948 -999 12 12.8 102430 40
2010-06-22 06:13:42 51°13.665 2°55.944 -999 18 12.8 102430 40
2010-06-22 06:13:48 51°13.666 2°55.938 -999 21 12.8 102430 40
2010-06-22 06:13:53 51°13.668 2°55.933 -999 21 12.8 102430 39
2010-06-22 06:13:59 51°13.669 2°55.926 -999 22 12.8 102430 39
2010-06-22 06:14:05 51°13.671 2°55.919 -999 22 12.8 102430 41
2010-06-22 06:14:10 51°13.672 2°55.913 -999 30 12.8 102430 41
2010-06-22 06:14:15 51°13.673 2°55.906 -999 30 12.8 102430 41
2010-06-22 06:14:20 51°13.674 2°55.898 -999 39 12.8 102430 41
2010-06-22 06:14:25 51°13.675 2°55.891 -999 36 12.8 102430 41
2010-06-22 06:14:30 51°13.677 2°55.884 -999 37 12.8 102430 41
2010-06-22 06:14:36 51°13.678 2°55.875 -999 37 12.8 102430 41
2010-06-22 06:14:40 51°13.679 2°55.869 -999 37 12.8 102430 41
2010-06-22 06:14:45 51°13.68 2°55.861 -999 36 12.8 102430 40
2010-06-22 06:14:50 51°13.68 2°55.854 -999 36 12.8 102430 40
2010-06-22 06:14:56 51°13.682 2°55.845 -999 35 12.8 102430 40
2010-06-22 06:15:00 51°13.682 2°55.838 0.1 34 12.8 102430 40
2010-06-22 06:15:05 51°13.683 2°55.83 0.1 33 12.8 102430 40
2010-06-22 06:15:10 51°13.684 2°55.823 0.1 28 12.8 102430 40
2010-06-22 06:15:15 51°13.685 2°55.815 -999 27 12.8 102430 41
2010-06-22 06:15:20 51°13.686 2°55.807 -999 33 12.8 102430 41
2010-06-22 06:15:25 51°13.687 2°55.8 -999 33 12.8 102430 40
2010-06-22 06:15:30 51°13.687 2°55.792 -999 33 12.8 102430 40
2010-06-22 06:15:35 51°13.688 2°55.785 -999 33 12.8 102430 41
2010-06-22 06:15:41 51°13.689 2°55.776 -999 30 12.8 102430 41
2010-06-22 06:15:45 51°13.689 2°55.77 -999 30 12.8 102430 41
2010-06-22 06:15:50 51°13.689 2°55.763 -999 30 12.8 102430 41
2010-06-22 06:15:55 51°13.689 2°55.756 -999 31 12.8 102430 41
2010-06-22 06:16:00 51°13.688 2°55.75 -999 32 12.8 102430 41
2010-06-22 06:16:05 51°13.687 2°55.744 -999 34 12.8 102430 41
2010-06-22 06:16:10 51°13.686 2°55.74 0.5 41 12.8 102430 41
2010-06-22 06:16:15 51°13.686 2°55.738 0.8 34 12.8 102430 41
2010-06-22 06:16:20 51°13.686 2°55.738 0.3 19 12.8 102430 41
2010-06-22 06:16:25 51°13.686 2°55.739 0.7 13 12.9 102430 41
2010-06-22 06:16:29 51°13.687 2°55.741 0.5 11 12.9 102430 41
2010-06-22 06:16:34 51°13.688 2°55.744 0.5 10 12.9 102430 40
2010-06-22 06:16:39 51°13.69 2°55.747 0.2 10 12.9 102430 40
2010-06-22 06:16:43 51°13.692 2°55.75 0.1 11 12.9 102430 40
2010-06-22 06:16:49 51°13.696 2°55.754 0.2 4 12.9 102430 40
2010-06-22 06:16:53 51°13.699 2°55.756 0.2 7 12.9 102430 40
2010-06-22 06:16:58 51°13.703 2°55.758 0.3 12 12.9 102430 40
2010-06-22 06:17:02 51°13.706 2°55.758 0.3 12 12.9 102430 39
2010-06-22 06:17:07 51°13.71 2°55.759 0.1 14 12.9 102430 39
2010-06-22 06:17:12 51°13.715 2°55.758 0.2 14 12.9 102430 41
2010-06-22 06:17:17 51°13.719 2°55.756 0.1 13 12.9 102430 41
2010-06-22 06:17:22 51°13.723 2°55.753 0.1 13 12.9 102430 41
2010-06-22 06:17:27 51°13.728 2°55.749 -999 13 12.9 102430 41
2010-06-22 06:17:32 51°13.732 2°55.744 -999 13 12.9 102430 41
2010-06-22 06:17:37 51°13.736 2°55.739 -999 13 12.9 102430 41
2010-06-22 06:17:42 51°13.74 2°55.733 -999 13 12.9 102430 41
2010-06-22 06:17:47 51°13.744 2°55.727 -999 12 12.9 102430 41
2010-06-22 06:17:52 51°13.749 2°55.719 -999 12 12.9 102430 41
2010-06-22 06:17:57 51°13.754 2°55.712 -999 335 12.9 102430 41
2010-06-22 06:18:02 51°13.759 2°55.704 -999 334 12.9 102430 41
2010-06-22 06:18:07 51°13.765 2°55.697 -999 337 12.9 102430 41
2010-06-22 06:18:12 51°13.771 2°55.689 -999 337 12.9 102430 41
2010-06-22 06:18:17 51°13.777 2°55.681 -999 342 12.9 102430 41
2010-06-22 06:18:21 51°13.783 2°55.676 -999 343 13 102430 41
2010-06-22 06:18:27 51°13.791 2°55.667 -999 343 13 102430 41
2010-06-22 06:18:32 51°13.799 2°55.661 -999 342 13 102430 41
2010-06-22 06:18:37 51°13.806 2°55.654 0.1 340 13 102430 41
2010-06-22 06:18:41 51°13.813 2°55.649 0.1 339 13 102430 41
2010-06-22 06:18:47 51°13.823 2°55.641 0.1 340 13 102430 41
2010-06-22 06:18:52 51°13.831 2°55.635 0.5 341 13 102430 41
2010-06-22 06:18:57 51°13.839 2°55.629 0.1 343 13 102430 41
2010-06-22 06:19:01 51°13.845 2°55.624 0.1 343 13 102430 41
2010-06-22 06:19:07 51°13.854 2°55.617 -999 334 13 102430 41
2010-06-22 06:19:12 51°13.861 2°55.611 -999 334 13 102430 39
2010-06-22 06:19:17 51°13.868 2°55.606 -999 335 13 102430 39
2010-06-22 06:19:22 51°13.875 2°55.601 -999 337 13 102430 41
2010-06-22 06:19:27 51°13.883 2°55.596 -999 335 13 102430 41
2010-06-22 06:19:32 51°13.89 2°55.591 -999 336 13 102430 41
2010-06-22 06:19:37 51°13.897 2°55.586 -999 337 13 102430 41
2010-06-22 06:19:41 51°13.903 2°55.582 -999 337 13 102430 41
2010-06-22 06:19:47 51°13.912 2°55.576 -999 336 13 102430 41
2010-06-22 06:19:52 51°13.919 2°55.571 -999 335 13 102430 41
2010-06-22 06:19:57 51°13.926 2°55.565 -999 334 13 102430 41
2010-06-22 06:20:02 51°13.933 2°55.56 -999 334 13 102430 41
2010-06-22 06:20:07 51°13.94 2°55.554 -999 334 13 102430 41
2010-06-22 06:20:12 51°13.947 2°55.548 -999 339 13 102430 41
2010-06-22 06:20:17 51°13.953 2°55.543 -999 338 13 102430 41
2010-06-22 06:20:22 51°13.96 2°55.538 -999 342 13 102440 41
2010-06-22 06:20:27 51°13.967 2°55.533 -999 346 13 102440 41
2010-06-22 06:20:32 51°13.973 2°55.528 -999 346 13 102430 41
2010-06-22 06:20:37 51°13.98 2°55.523 -999 342 13 102430 41
2010-06-22 06:20:41 51°13.985 2°55.52 -999 342 13 102430 41
2010-06-22 06:20:47 51°13.993 2°55.514 -999 345 13 102430 41
2010-06-22 06:20:52 51°14 2°55.509 -999 348 13 102430 41
2010-06-22 06:20:57 51°14.007 2°55.505 -999 348 13 102430 41
2010-06-22 06:21:01 51°14.012 2°55.501 -999 348 13 102430 41
2010-06-22 06:21:07 51°14.019 2°55.495 -999 348 13 102430 41
2010-06-22 06:21:12 51°14.026 2°55.491 -999 348 13 102430 40
2010-06-22 06:21:17 51°14.032 2°55.486 -999 347 13 102430 40
2010-06-22 06:21:22 51°14.038 2°55.481 -999 347 13 102430 41
2010-06-22 06:21:27 51°14.044 2°55.476 -999 346 13 102430 41
2010-06-22 06:21:32 51°14.051 2°55.472 -999 346 13 102440 40
2010-06-22 06:21:37 51°14.057 2°55.467 -999 345 13 102440 40
2010-06-22 06:21:41 51°14.062 2°55.464 -999 345 13 102440 41
2010-06-22 06:21:47 51°14.07 2°55.458 -999 347 13 102440 41
2010-06-22 06:21:52 51°14.076 2°55.454 -999 343 13 102430 39
2010-06-22 06:21:57 51°14.083 2°55.449 -999 347 13 102430 39
2010-06-22 06:22:02 51°14.089 2°55.445 -999 346 12.9 102430 41
2010-06-22 06:22:07 51°14.095 2°55.44 -999 345 12.9 102430 41
2010-06-22 06:22:12 51°14.102 2°55.436 -999 347 12.9 102440 41
2010-06-22 06:22:17 51°14.108 2°55.432 -999 347 12.9 102440 41
2010-06-22 06:22:22 51°14.114 2°55.427 -999 346 13 102440 40
2010-06-22 06:22:28 51°14.122 2°55.422 -999 349 13 102440 40
2010-06-22 06:22:33 51°14.128 2°55.417 -999 349 13 102440 40
2010-06-22 06:22:39 51°14.135 2°55.411 -999 349 13 102440 40
2010-06-22 06:22:45 51°14.144 2°55.405 -999 349 12.9 102430 40
2010-06-22 06:22:49 51°14.149 2°55.401 -999 349 12.9 102430 40
2010-06-22 06:22:55 51°14.158 2°55.394 -999 348 12.9 102430 40
2010-06-22 06:23:00 51°14.166 2°55.387 -999 345 12.9 102430 40
2010-06-22 06:23:04 51°14.172 2°55.381 -999 342 12.9 102430 41
2010-06-22 06:23:09 51°14.18 2°55.374 -999 343 12.9 102430 41
2010-06-22 06:23:14 51°14.189 2°55.367 -999 340 12.9 102430 41
2010-06-22 06:23:19 51°14.198 2°55.359 -999 341 12.9 102430 41
2010-06-22 06:23:23 51°14.205 2°55.352 -999 341 12.9 102430 40
2010-06-22 06:23:29 51°14.216 2°55.342 -999 339 12.9 102430 40
2010-06-22 06:23:33 51°14.224 2°55.335 -999 341 12.9 102430 41
2010-06-22 06:23:37 51°14.231 2°55.328 -999 337 12.9 102430 41
2010-06-22 06:23:42 51°14.241 2°55.319 -999 337 12.9 102430 40
2010-06-22 06:23:47 51°14.25 2°55.308 1.8 334 12.9 102430 40
2010-06-22 06:23:52 51°14.26 2°55.296 2.2 336 12.9 102430 40
2010-06-22 06:23:57 51°14.27 2°55.284 2.2 329 12.9 102430 40
2010-06-22 06:24:02 51°14.281 2°55.271 2.7 329 12.9 102430 41
2010-06-22 06:24:07 51°14.291 2°55.258 2.7 332 12.9 102430 41
2010-06-22 06:24:12 51°14.302 2°55.245 2.8 333 12.9 102430 39
2010-06-22 06:24:17 51°14.313 2°55.232 2.9 332 12.9 102430 39
2010-06-22 06:24:21 51°14.322 2°55.221 3.1 333 12.9 102430 43
2010-06-22 06:24:27 51°14.336 2°55.205 3 333 12.9 102430 43
2010-06-22 06:24:32 51°14.347 2°55.191 3 332 12.9 102430 42
2010-06-22 06:24:37 51°14.359 2°55.178 3 332 12.9 102430 42
2010-06-22 06:24:42 51°14.371 2°55.165 3.3 331 12.9 102430 42
2010-06-22 06:24:47 51°14.383 2°55.152 3.2 283 12.9 102430 42
2010-06-22 06:24:52 51°14.396 2°55.139 2.8 332 12.9 102430 40
2010-06-22 06:24:57 51°14.409 2°55.126 3.6 334 12.9 102430 40
2010-06-22 06:25:02 51°14.422 2°55.114 2.9 332 12.9 102430 39
2010-06-22 06:25:07 51°14.435 2°55.101 3.2 335 12.9 102430 39
2010-06-22 06:25:12 51°14.449 2°55.089 3.6 336 12.9 102430 43
2010-06-22 06:25:17 51°14.463 2°55.077 3.6 336 12.9 102430 43
2010-06-22 06:25:21 51°14.474 2°55.067 3.5 335 12.9 102430 39
2010-06-22 06:25:27 51°14.491 2°55.052 3.5 334 12.9 102430 39
2010-06-22 06:25:32 51°14.505 2°55.039 3.6 334 12.9 102440 40
2010-06-22 06:25:37 51°14.519 2°55.026 3.5 334 12.9 102440 40
2010-06-22 06:25:41 51°14.529 2°55.014 3.2 332 12.9 102430 40
2010-06-22 06:25:47 51°14.544 2°54.995 3.5 332 12.9 102430 40
2010-06-22 06:25:52 51°14.556 2°54.978 3.7 329 13 102430 43
2010-06-22 06:25:57 51°14.567 2°54.959 3.2 330 13 102430 43
2010-06-22 06:26:02 51°14.576 2°54.939 3.7 331 12.9 102430 40
2010-06-22 06:26:07 51°14.585 2°54.918 3.3 330 12.9 102430 40
2010-06-22 06:26:12 51°14.593 2°54.897 3.6 331 12.9 102440 41
2010-06-22 06:26:17 51°14.601 2°54.874 3.5 328 12.9 102440 41
2010-06-22 06:26:21 51°14.606 2°54.856 3.8 328 12.9 102430 39
2010-06-22 06:26:27 51°14.613 2°54.828 3.8 327 12.9 102430 39
2010-06-22 06:26:32 51°14.618 2°54.804 3.4 329 13 102430 39
2010-06-22 06:26:37 51°14.622 2°54.779 3.8 328 13 102430 39
2010-06-22 06:26:42 51°14.625 2°54.754 3.9 326 13 102430 40
2010-06-22 06:26:47 51°14.628 2°54.729 3.9 284 13 102430 40
2010-06-22 06:26:52 51°14.628 2°54.703 4 326 13 102430 39
2010-06-22 06:26:57 51°14.628 2°54.677 4 326 13 102430 39
2010-06-22 06:27:02 51°14.626 2°54.651 4.3 323 13 102430 39
2010-06-22 06:27:07 51°14.625 2°54.625 3.9 327 13 102430 39
2010-06-22 06:27:12 51°14.625 2°54.599 4.4 324 13 102430 39
2010-06-22 06:27:17 51°14.622 2°54.573 4.4 328 13 102430 39
2010-06-22 06:27:22 51°14.621 2°54.546 5.1 329 13 102430 39
2010-06-22 06:27:27 51°14.617 2°54.52 5.2 329 13 102430 39
2010-06-22 06:27:32 51°14.615 2°54.493 4.8 326 13 102430 39
2010-06-22 06:27:37 51°14.61 2°54.467 5.5 326 13 102430 39
2010-06-22 06:27:41 51°14.607 2°54.445 5.6 329 13 102430 39
2010-06-22 06:27:47 51°14.601 2°54.414 5.4 328 13 102430 39
2010-06-22 06:27:52 51°14.596 2°54.387 5.5 327 13 102420 39
2010-06-22 06:27:57 51°14.589 2°54.362 5.6 327 13 102420 39
2010-06-22 06:28:02 51°14.583 2°54.336 5.3 326 13.1 102420 39
2010-06-22 06:28:07 51°14.575 2°54.311 5.5 327 13.1 102420 39
2010-06-22 06:28:12 51°14.568 2°54.286 5.3 325 13.1 102420 39
2010-06-22 06:28:17 51°14.56 2°54.261 5.4 325 13.1 102420 39
2010-06-22 06:28:21 51°14.553 2°54.242 5.7 326 13.1 102420 42
2010-06-22 06:28:27 51°14.543 2°54.213 5.9 303 13.1 102420 42
2010-06-22 06:28:32 51°14.534 2°54.189 5.1 325 13.1 102430 43
2010-06-22 06:28:37 51°14.524 2°54.167 5 330 13.1 102430 43
2010-06-22 06:28:42 51°14.516 2°54.142 5.1 326 13.1 102420 41
2010-06-22 06:28:47 51°14.505 2°54.12 5.4 328 13.1 102420 41
2010-06-22 06:28:52 51°14.496 2°54.097 6 325 13.1 102430 41
2010-06-22 06:28:57 51°14.485 2°54.075 5.8 326 13.1 102430 41
2010-06-22 06:29:02 51°14.476 2°54.052 5.8 325 13 102420 40
2010-06-22 06:29:07 51°14.464 2°54.031 5.8 327 13 102420 40
2010-06-22 06:29:12 51°14.454 2°54.008 5.4 325 13 102420 42
2010-06-22 06:29:17 51°14.443 2°53.987 5.8 327 13 102420 42
2010-06-22 06:29:22 51°14.433 2°53.965 6 325 13.1 102420 39
2010-06-22 06:29:27 51°14.421 2°53.943 6 328 13.1 102420 39
2010-06-22 06:29:32 51°14.411 2°53.921 6.2 325 13.1 102420 41
2010-06-22 06:29:37 51°14.4 2°53.9 6.2 324 13.1 102420 41
2010-06-22 06:29:41 51°14.391 2°53.882 6.2 324 13.1 102420 39
2010-06-22 06:29:47 51°14.379 2°53.855 6.6 324 13.1 102420 39
2010-06-22 06:29:52 51°14.367 2°53.833 6.1 326 13.1 102430 38
2010-06-22 06:29:57 51°14.357 2°53.811 5.5 326 13.1 102430 38
2010-06-22 06:30:01 51°14.348 2°53.793 6.1 328 13.1 102420 39
2010-06-22 06:30:07 51°14.336 2°53.766 6.2 324 13.1 102420 39
2010-06-22 06:30:12 51°14.325 2°53.744 6.5 325 13.1 102420 41
2010-06-22 06:30:17 51°14.314 2°53.722 5.9 325 13.1 102420 41
2010-06-22 06:30:21 51°14.306 2°53.704 5.4 327 13.1 102420 42
2010-06-22 06:30:27 51°14.293 2°53.677 5.9 326 13.1 102420 42
2010-06-22 06:30:32 51°14.283 2°53.655 5.9 324 13.1 102420 39
2010-06-22 06:30:37 51°14.272 2°53.632 6 325 13.1 102420 39
2010-06-22 06:30:42 51°14.262 2°53.61 5.7 324 13.1 102430 39
2010-06-22 06:30:47 51°14.251 2°53.587 5.8 326 13.1 102430 39
2010-06-22 06:30:52 51°14.241 2°53.564 6 326 13.1 102420 39
2010-06-22 06:30:57 51°14.231 2°53.542 6 329 13.1 102420 39
2010-06-22 06:31:01 51°14.223 2°53.523 5.6 328 13.1 102420 42
2010-06-22 06:31:07 51°14.209 2°53.497 5.7 329 13.1 102420 42
2010-06-22 06:31:12 51°14.2 2°53.473 6.4 328 13.1 102430 39
2010-06-22 06:31:17 51°14.189 2°53.452 6 326 13.1 102430 39
2010-06-22 06:31:22 51°14.179 2°53.429 5.8 327 13.1 102430 41
2010-06-22 06:31:27 51°14.168 2°53.406 5.5 326 13.1 102430 41
2010-06-22 06:31:32 51°14.158 2°53.383 5.6 326 13.1 102420 41
2010-06-22 06:31:37 51°14.147 2°53.361 5.3 327 13.1 102420 41
2010-06-22 06:31:41 51°14.139 2°53.342 5.1 326 13.1 102420 42
2010-06-22 06:31:47 51°14.126 2°53.316 5.6 328 13.1 102420 42
2010-06-22 06:31:52 51°14.116 2°53.292 5.5 328 13.1 102420 39
2010-06-22 06:31:57 51°14.106 2°53.27 5.6 326 13.1 102420 39
2010-06-22 06:32:01 51°14.098 2°53.252 5.4 324 13.1 102420 39
2010-06-22 06:32:07 51°14.085 2°53.225 5.8 328 13.1 102420 39
2010-06-22 06:32:12 51°14.075 2°53.202 6 327 13 102420 42
2010-06-22 06:32:17 51°14.064 2°53.18 6.3 326 13 102420 42
2010-06-22 06:32:21 51°14.056 2°53.162 5.9 326 13.1 102430 40
2010-06-22 06:32:27 51°14.043 2°53.135 6.1 328 13.1 102430 40
2010-06-22 06:32:32 51°14.034 2°53.112 6 326 13.1 102420 41
2010-06-22 06:32:37 51°14.023 2°53.09 6.1 327 13.1 102420 41
2010-06-22 06:32:42 51°14.014 2°53.066 6.4 325 13.1 102420 39
2010-06-22 06:32:47 51°14.003 2°53.045 6.5 282 13.1 102420 39
2010-06-22 06:32:52 51°13.993 2°53.021 5.8 324 13.1 102420 40
2010-06-22 06:32:57 51°13.982 2°52.999 6.1 325 13.1 102420 40
2010-06-22 06:33:01 51°13.975 2°52.981 5.7 328 13.1 102420 40
2010-06-22 06:33:07 51°13.962 2°52.955 6 324 13.1 102420 40
2010-06-22 06:33:12 51°13.953 2°52.931 5.9 327 13.1 102420 39
2010-06-22 06:33:17 51°13.942 2°52.909 5.5 326 13.1 102420 39
2010-06-22 06:33:22 51°13.932 2°52.887 5.5 326 13 102420 42
2010-06-22 06:33:27 51°13.922 2°52.863 5.5 325 13 102420 42
2010-06-22 06:33:32 51°13.912 2°52.841 5.6 326 13 102420 42
2010-06-22 06:33:37 51°13.902 2°52.819 5.9 327 13 102420 42
2010-06-22 06:33:42 51°13.892 2°52.795 5.8 326 13 102420 42
2010-06-22 06:33:47 51°13.882 2°52.773 5.6 324 13 102420 42
2010-06-22 06:33:52 51°13.872 2°52.751 5.5 325 13 102420 40
2010-06-22 06:33:57 51°13.862 2°52.728 5.8 303 13 102420 40
2010-06-22 06:34:02 51°13.851 2°52.706 6 326 13 102420 40
2010-06-22 06:34:07 51°13.841 2°52.683 5.4 323 13 102420 40
2010-06-22 06:34:12 51°13.831 2°52.661 5.6 325 13 102420 40
2010-06-22 06:34:17 51°13.821 2°52.638 6 323 13 102420 40
2010-06-22 06:34:21 51°13.812 2°52.62 5.7 324 13 102420 39
2010-06-22 06:34:27 51°13.8 2°52.593 5.9 322 13 102420 39
2010-06-22 06:34:32 51°13.79 2°52.57 6.1 323 13 102430 41
2010-06-22 06:34:37 51°13.78 2°52.547 6.3 321 13 102430 41
2010-06-22 06:34:42 51°13.77 2°52.525 5.7 322 13 102420 42
2010-06-22 06:34:47 51°13.76 2°52.502 5.5 285 13 102420 42
2010-06-22 06:34:52 51°13.749 2°52.481 5.8 323 13 102420 42
2010-06-22 06:34:57 51°13.74 2°52.457 6 322 13 102420 42
2010-06-22 06:35:01 51°13.731 2°52.439 5.8 320 13 102420 42
2010-06-22 06:35:07 51°13.719 2°52.412 5.5 329 13 102420 42
2010-06-22 06:35:12 51°13.709 2°52.39 6.2 324 13 102420 38
2010-06-22 06:35:17 51°13.699 2°52.367 6.1 323 13 102420 38
2010-06-22 06:35:22 51°13.689 2°52.344 6.6 323 13 102420 42
2010-06-22 06:35:27 51°13.679 2°52.322 6.4 323 13 102420 42
2010-06-22 06:35:32 51°13.669 2°52.299 5.6 325 13 102420 40
2010-06-22 06:35:37 51°13.659 2°52.277 5.8 324 13 102420 40
2010-06-22 06:35:42 51°13.649 2°52.254 6.2 326 13 102420 39
2010-06-22 06:35:47 51°13.639 2°52.231 5.6 326 13 102420 39
2010-06-22 06:35:52 51°13.629 2°52.209 5.8 324 13 102430 41
2010-06-22 06:35:57 51°13.619 2°52.186 6 326 13 102430 41
2010-06-22 06:36:02 51°13.609 2°52.163 5.9 324 13 102420 42
2010-06-22 06:36:07 51°13.599 2°52.141 5.6 323 13 102420 42
2010-06-22 06:36:12 51°13.589 2°52.119 5.8 323 13 102420 39
2010-06-22 06:36:17 51°13.579 2°52.096 5.7 324 13 102420 39
2010-06-22 06:36:21 51°13.571 2°52.078 6.1 324 13 102420 42
2010-06-22 06:36:27 51°13.559 2°52.051 6 323 13 102420 42
2010-06-22 06:36:32 51°13.548 2°52.029 6 324 13 102420 42
2010-06-22 06:36:37 51°13.539 2°52.006 6.3 325 13 102420 42
2010-06-22 06:36:41 51°13.53 2°51.989 6 325 13 102430 39
2010-06-22 06:36:47 51°13.519 2°51.962 5.4 323 13 102430 39
2010-06-22 06:36:52 51°13.509 2°51.942 6 324 13 102430 42
2010-06-22 06:36:57 51°13.501 2°51.922 5.6 325 13 102430 42
2010-06-22 06:37:01 51°13.494 2°51.906 6 322 13 102430 42
2010-06-22 06:37:07 51°13.484 2°51.884 4.9 326 13 102430 42
2010-06-22 06:37:12 51°13.475 2°51.865 5.2 321 13 102430 39
2010-06-22 06:37:17 51°13.467 2°51.847 4.9 323 13 102430 39
2010-06-22 06:37:22 51°13.459 2°51.83 4.8 322 13 102430 39
2010-06-22 06:37:27 51°13.451 2°51.812 4.5 322 13 102430 39
2010-06-22 06:37:32 51°13.444 2°51.794 4.5 322 13 102430 42
2010-06-22 06:37:37 51°13.436 2°51.777 4.6 322 13 102430 42
2010-06-22 06:37:41 51°13.43 2°51.764 4.9 321 13 102430 40
2010-06-22 06:37:47 51°13.421 2°51.744 4.5 323 13 102430 40
2010-06-22 06:37:52 51°13.414 2°51.726 4.1 322 13 102430 39
2010-06-22 06:37:57 51°13.406 2°51.71 4.3 323 13 102430 39
2010-06-22 06:38:02 51°13.399 2°51.693 4.6 322 13 102430 42
2010-06-22 06:38:07 51°13.391 2°51.676 5.1 323 13 102430 42
2010-06-22 06:38:12 51°13.384 2°51.659 5 322 13 102430 40
2010-06-22 06:38:17 51°13.376 2°51.643 4.6 321 13 102430 40
2010-06-22 06:38:22 51°13.37 2°51.626 4.6 319 13 102430 42
2010-06-22 06:38:27 51°13.362 2°51.61 4.3 322 13 102430 42
2010-06-22 06:38:32 51°13.357 2°51.591 4.4 321 13 102430 42
2010-06-22 06:38:37 51°13.351 2°51.574 4 320 13 102430 42
2010-06-22 06:38:41 51°13.35 2°51.559 3.5 318 13 102430 40
2010-06-22 06:38:47 51°13.348 2°51.539 2.7 316 13 102430 40
2010-06-22 06:38:52 51°13.349 2°51.524 2.6 316 13.1 102430 42
2010-06-22 06:38:57 51°13.351 2°51.51 2 36 13.1 102430 42
2010-06-22 06:39:01 51°13.353 2°51.5 1.5 25 13.1 102430 43
2010-06-22 06:39:07 51°13.357 2°51.486 0.8 319 13.1 102430 43
2010-06-22 06:39:12 51°13.361 2°51.476 0.5 320 13.1 102430 39
2010-06-22 06:39:17 51°13.366 2°51.467 0.1 316 13.1 102430 39
2010-06-22 06:39:22 51°13.371 2°51.459 0.1 316 13.1 102440 38
2010-06-22 06:39:27 51°13.377 2°51.452 0.1 306 13.1 102440 38
2010-06-22 06:39:32 51°13.383 2°51.446 0.1 323 13.1 102430 40
2010-06-22 06:39:37 51°13.389 2°51.441 -999 332 13.1 102430 40
2010-06-22 06:39:41 51°13.394 2°51.437 -999 332 13.1 102430 40
2010-06-22 06:39:47 51°13.402 2°51.43 -999 332 13.1 102430 40
2010-06-22 06:39:52 51°13.408 2°51.425 -999 332 13.1 102430 40
2010-06-22 06:39:57 51°13.415 2°51.42 -999 331 13.1 102430 40
2010-06-22 06:40:02 51°13.422 2°51.414 -999 331 13.1 102440 41
2010-06-22 06:40:07 51°13.428 2°51.409 -999 332 13.1 102440 41
2010-06-22 06:40:12 51°13.435 2°51.404 -999 332 13.1 102440 41
2010-06-22 06:40:17 51°13.443 2°51.399 -999 333 13.1 102440 41
2010-06-22 06:40:22 51°13.45 2°51.395 -999 334 13.1 102440 40
2010-06-22 06:40:27 51°13.458 2°51.392 -999 343 13.1 102440 40
2010-06-22 06:40:32 51°13.465 2°51.39 -999 343 13.1 102440 39
2010-06-22 06:40:37 51°13.472 2°51.389 -999 343 13.1 102440 39
2010-06-22 06:40:41 51°13.477 2°51.389 -999 345 13.1 102440 41
2010-06-22 06:40:47 51°13.485 2°51.389 -999 354 13.1 102440 41
2010-06-22 06:40:52 51°13.491 2°51.39 -999 354 13.1 102440 40
2010-06-22 06:40:57 51°13.496 2°51.391 -999 3 13.1 102440 40
2010-06-22 06:41:01 51°13.5 2°51.392 -999 3 13.1 102440 40
2010-06-22 06:41:07 51°13.506 2°51.393 -999 4 13.1 102440 40
2010-06-22 06:41:12 51°13.511 2°51.395 -999 7 13.1 102440 41
2010-06-22 06:41:17 51°13.515 2°51.397 -999 16 13.1 102440 41
2010-06-22 06:41:22 51°13.519 2°51.399 -999 20 13.1 102440 41
2010-06-22 06:41:27 51°13.522 2°51.401 0.1 21 13.1 102440 41
2010-06-22 06:41:32 51°13.525 2°51.404 0.1 23 13.1 102440 41
2010-06-22 06:41:37 51°13.527 2°51.407 0.2 29 13.1 102440 41
2010-06-22 06:41:41 51°13.528 2°51.408 0.2 30 13.1 102440 41
2010-06-22 06:41:47 51°13.53 2°51.411 0.9 30 13.1 102440 41
2010-06-22 06:41:52 51°13.531 2°51.412 0.4 32 13.1 102440 41
2010-06-22 06:41:57 51°13.531 2°51.414 0.1 29 13.1 102440 41
2010-06-22 06:42:02 51°13.532 2°51.416 0.1 30 13.1 102430 41
2010-06-22 06:42:07 51°13.533 2°51.418 0.1 26 13.1 102430 41
2010-06-22 06:42:12 51°13.534 2°51.42 -999 30 13.1 102440 41
2010-06-22 06:42:17 51°13.535 2°51.422 -999 23 13.1 102440 41
2010-06-22 06:42:22 51°13.536 2°51.424 -999 24 13.1 102440 41
2010-06-22 06:42:27 51°13.537 2°51.426 0.1 25 13.1 102440 41
2010-06-22 06:42:32 51°13.537 2°51.427 0.1 25 13.1 102440 41
2010-06-22 06:42:37 51°13.538 2°51.429 0.1 25 13.1 102440 41
2010-06-22 06:42:42 51°13.539 2°51.431 -999 24 13.1 102440 41
2010-06-22 06:42:47 51°13.54 2°51.433 -999 24 13.1 102440 41
2010-06-22 06:42:52 51°13.54 2°51.435 -999 25 13.2 102440 41
2010-06-22 06:42:57 51°13.541 2°51.437 -999 38 13.2 102440 41
2010-06-22 06:43:01 51°13.542 2°51.438 -999 32 13.1 102440 41
2010-06-22 06:43:07 51°13.542 2°51.441 -999 33 13.1 102440 41
2010-06-22 06:43:12 51°13.543 2°51.442 -999 30 13.2 102440 40
2010-06-22 06:43:17 51°13.543 2°51.444 -999 28 13.2 102440 40
2010-06-22 06:43:21 51°13.544 2°51.446 -999 28 13.2 102440 41
2010-06-22 06:43:27 51°13.545 2°51.448 -999 28 13.2 102440 41
2010-06-22 06:43:32 51°13.546 2°51.45 -999 28 13.2 102440 41
2010-06-22 06:43:37 51°13.546 2°51.452 -999 28 13.2 102440 41
2010-06-22 06:43:41 51°13.547 2°51.453 -999 29 13.2 102440 41
2010-06-22 06:43:47 51°13.548 2°51.455 -999 27 13.2 102440 41
2010-06-22 06:43:52 51°13.549 2°51.457 -999 28 13.2 102440 41
2010-06-22 06:43:57 51°13.549 2°51.459 -999 28 13.2 102440 41
2010-06-22 06:44:02 51°13.55 2°51.461 -999 28 13.2 102440 41
2010-06-22 06:44:07 51°13.55 2°51.463 -999 28 13.2 102440 41
2010-06-22 06:44:12 51°13.551 2°51.465 -999 26 13.2 102440 41
2010-06-22 06:44:17 51°13.551 2°51.467 -999 26 13.2 102440 41
2010-06-22 06:44:21 51°13.552 2°51.468 -999 27 13.2 102440 41
2010-06-22 06:44:27 51°13.553 2°51.47 -999 29 13.2 102440 41
2010-06-22 06:44:32 51°13.553 2°51.472 -999 23 13.3 102440 41
2010-06-22 06:44:37 51°13.554 2°51.474 -999 25 13.3 102440 41
2010-06-22 06:44:42 51°13.555 2°51.476 -999 25 13.3 102440 41
2010-06-22 06:44:47 51°13.556 2°51.478 -999 25 13.3 102440 41
2010-06-22 06:44:52 51°13.557 2°51.48 -999 24 13.3 102440 41
2010-06-22 06:44:57 51°13.557 2°51.482 -999 22 13.3 102440 41
2010-06-22 06:45:02 51°13.557 2°51.484 -999 22 13.3 102440 41
2010-06-22 06:45:07 51°13.558 2°51.486 -999 22 13.3 102440 41
2010-06-22 06:45:12 51°13.558 2°51.488 -999 22 13.3 102440 41
2010-06-22 06:45:17 51°13.559 2°51.49 -999 23 13.3 102440 41
2010-06-22 06:45:22 51°13.559 2°51.492 -999 22 13.3 102440 41
2010-06-22 06:45:27 51°13.56 2°51.494 -999 22 13.3 102440 41
2010-06-22 06:45:32 51°13.561 2°51.496 -999 22 13.3 102440 41
2010-06-22 06:45:37 51°13.561 2°51.498 -999 24 13.3 102440 41
2010-06-22 06:45:41 51°13.562 2°51.499 -999 26 13.3 102440 41
2010-06-22 06:45:47 51°13.563 2°51.501 -999 27 13.3 102440 41
2010-06-22 06:45:52 51°13.563 2°51.504 -999 28 13.3 102440 39
2010-06-22 06:45:57 51°13.564 2°51.506 -999 28 13.3 102440 39
2010-06-22 06:46:01 51°13.564 2°51.507 -999 28 13.3 102440 40
2010-06-22 06:46:07 51°13.565 2°51.51 -999 25 13.3 102440 40
2010-06-22 06:46:12 51°13.566 2°51.512 -999 26 13.3 102440 41
2010-06-22 06:46:17 51°13.566 2°51.514 -999 26 13.3 102440 41
2010-06-22 06:46:21 51°13.566 2°51.515 -999 26 13.3 102440 41
2010-06-22 06:46:27 51°13.567 2°51.518 -999 30 13.3 102440 41
2010-06-22 06:46:32 51°13.568 2°51.52 -999 27 13.3 102440 41
2010-06-22 06:46:37 51°13.568 2°51.522 -999 27 13.3 102440 41
2010-06-22 06:46:42 51°13.569 2°51.524 -999 28 13.3 102440 41
2010-06-22 06:46:47 51°13.57 2°51.526 -999 27 13.3 102440 41
2010-06-22 06:46:52 51°13.57 2°51.528 -999 26 13.3 102440 41
2010-06-22 06:46:57 51°13.571 2°51.53 -999 24 13.3 102440 41
2010-06-22 06:47:01 51°13.572 2°51.532 -999 31 13.3 102440 41
2010-06-22 06:47:07 51°13.572 2°51.534 -999 28 13.3 102440 41
2010-06-22 06:47:12 51°13.573 2°51.536 -999 28 13.3 102440 41
2010-06-22 06:47:17 51°13.574 2°51.539 -999 28 13.3 102440 41
2010-06-22 06:47:22 51°13.574 2°51.541 -999 26 13.3 102440 41
2010-06-22 06:47:27 51°13.575 2°51.543 -999 26 13.3 102440 41
2010-06-22 06:47:32 51°13.575 2°51.545 -999 24 13.4 102440 41
2010-06-22 06:47:37 51°13.576 2°51.547 -999 25 13.4 102440 41
2010-06-22 06:47:41 51°13.576 2°51.549 -999 25 13.4 102430 41
2010-06-22 06:47:47 51°13.577 2°51.551 -999 26 13.4 102430 41
2010-06-22 06:47:52 51°13.577 2°51.554 -999 31 13.4 102430 41
2010-06-22 06:47:57 51°13.578 2°51.556 -999 27 13.4 102430 41
2010-06-22 06:48:01 51°13.578 2°51.558 -999 28 13.4 102430 41
2010-06-22 06:48:07 51°13.579 2°51.56 -999 26 13.4 102430 41
2010-06-22 06:48:12 51°13.58 2°51.563 -999 25 13.4 102430 41
2010-06-22 06:48:17 51°13.581 2°51.566 -999 24 13.4 102430 41
2010-06-22 06:48:21 51°13.581 2°51.569 -999 22 13.4 102440 41
2010-06-22 06:48:27 51°13.583 2°51.574 0.7 16 13.4 102440 41
2010-06-22 06:48:32 51°13.584 2°51.578 0.3 17 13.4 102440 39
2010-06-22 06:48:37 51°13.585 2°51.583 0.1 16 13.4 102440 39
2010-06-22 06:48:42 51°13.585 2°51.587 0.1 16 13.4 102440 42
2010-06-22 06:48:47 51°13.587 2°51.591 0.1 5 13.4 102440 42
2010-06-22 06:48:52 51°13.587 2°51.595 0.1 5 13.4 102430 41
2010-06-22 06:48:57 51°13.588 2°51.599 -999 -999 13.4 102430 41
2010-06-22 06:49:01 51°13.589 2°51.602 -999 360 13.5 102430 41
2010-06-22 06:49:07 51°13.59 2°51.606 -999 -999 13.5 102430 41
2010-06-22 06:49:12 51°13.591 2°51.61 -999 4 13.5 102430 41
2010-06-22 06:49:17 51°13.592 2°51.613 -999 -999 13.5 102430 41
2010-06-22 06:49:22 51°13.592 2°51.617 -999 4 13.5 102440 41
2010-06-22 06:49:27 51°13.593 2°51.62 -999 4 13.5 102440 41
2010-06-22 06:49:32 51°13.594 2°51.623 -999 4 13.5 102440 41
2010-06-22 06:49:37 51°13.594 2°51.627 -999 2 13.5 102440 41
2010-06-22 06:49:42 51°13.595 2°51.63 -999 2 13.5 102430 41
2010-06-22 06:49:47 51°13.596 2°51.633 -999 -999 13.5 102430 41
2010-06-22 06:49:52 51°13.597 2°51.637 -999 1 13.5 102440 41
2010-06-22 06:49:57 51°13.597 2°51.64 -999 357 13.5 102440 41
2010-06-22 06:50:01 51°13.598 2°51.643 -999 359 13.5 102430 41
2010-06-22 06:50:07 51°13.599 2°51.646 -999 357 13.5 102430 41
2010-06-22 06:50:12 51°13.599 2°51.65 -999 1 13.5 102430 41
2010-06-22 06:50:17 51°13.6 2°51.653 -999 359 13.5 102430 41
2010-06-22 06:50:21 51°13.6 2°51.656 -999 351 13.5 102440 41
2010-06-22 06:50:27 51°13.601 2°51.659 -999 354 13.5 102440 41
2010-06-22 06:50:32 51°13.601 2°51.663 -999 354 13.5 102430 41
2010-06-22 06:50:37 51°13.602 2°51.666 -999 357 13.5 102430 41
2010-06-22 06:50:41 51°13.602 2°51.668 -999 357 13.4 102440 41
2010-06-22 06:50:47 51°13.603 2°51.672 -999 353 13.4 102440 41
2010-06-22 06:50:52 51°13.604 2°51.675 -999 354 13.5 102430 41
2010-06-22 06:50:57 51°13.604 2°51.678 -999 353 13.5 102430 41
2010-06-22 06:51:01 51°13.605 2°51.68 -999 356 13.5 102440 41
2010-06-22 06:51:07 51°13.606 2°51.684 -999 356 13.5 102440 41
2010-06-22 06:51:12 51°13.606 2°51.687 -999 353 13.4 102430 39
2010-06-22 06:51:17 51°13.607 2°51.69 -999 346 13.4 102430 39
2010-06-22 06:51:22 51°13.607 2°51.693 -999 347 13.4 102430 41
2010-06-22 06:51:27 51°13.608 2°51.696 -999 350 13.4 102430 41
2010-06-22 06:51:32 51°13.608 2°51.699 -999 353 13.4 102440 41
2010-06-22 06:51:37 51°13.608 2°51.702 -999 350 13.4 102440 41
2010-06-22 06:51:42 51°13.609 2°51.705 -999 350 13.4 102430 41
2010-06-22 06:51:47 51°13.61 2°51.709 -999 349 13.4 102430 41
2010-06-22 06:51:52 51°13.61 2°51.712 -999 349 13.4 102440 41
2010-06-22 06:51:57 51°13.611 2°51.715 -999 349 13.4 102440 41
2010-06-22 06:52:02 51°13.611 2°51.718 -999 350 13.4 102430 41
2010-06-22 06:52:07 51°13.612 2°51.721 -999 348 13.4 102430 41
2010-06-22 06:52:12 51°13.613 2°51.723 -999 346 13.4 102430 41
2010-06-22 06:52:17 51°13.613 2°51.726 -999 351 13.4 102430 41
2010-06-22 06:52:21 51°13.614 2°51.729 -999 351 13.4 102430 41
2010-06-22 06:52:27 51°13.614 2°51.732 -999 351 13.4 102430 41
2010-06-22 06:52:32 51°13.615 2°51.735 -999 351 13.3 102430 41
2010-06-22 06:52:37 51°13.616 2°51.738 -999 351 13.3 102430 41
2010-06-22 06:52:41 51°13.616 2°51.741 -999 351 13.3 102430 41
2010-06-22 06:52:47 51°13.617 2°51.744 -999 351 13.3 102430 41
2010-06-22 06:52:52 51°13.618 2°51.747 -999 351 13.3 102430 41
2010-06-22 06:52:57 51°13.619 2°51.75 -999 351 13.3 102430 41
2010-06-22 06:53:01 51°13.619 2°51.752 -999 351 13.3 102440 41
2010-06-22 06:53:07 51°13.62 2°51.756 -999 351 13.3 102440 41
2010-06-22 06:53:12 51°13.621 2°51.759 -999 351 13.3 102430 41
2010-06-22 06:53:17 51°13.621 2°51.761 -999 351 13.3 102430 41
2010-06-22 06:53:22 51°13.622 2°51.764 -999 351 13.3 102430 41
2010-06-22 06:53:27 51°13.622 2°51.767 -999 351 13.3 102430 41
2010-06-22 06:53:32 51°13.623 2°51.77 -999 351 13.3 102430 41
2010-06-22 06:53:37 51°13.623 2°51.773 -999 351 13.3 102430 41
2010-06-22 06:53:41 51°13.624 2°51.775 -999 351 13.3 102440 41
2010-06-22 06:53:47 51°13.625 2°51.779 -999 352 13.3 102440 41
2010-06-22 06:53:52 51°13.625 2°51.781 -999 352 13.3 102430 40
2010-06-22 06:53:57 51°13.626 2°51.784 -999 353 13.3 102430 40
2010-06-22 06:54:02 51°13.627 2°51.787 -999 353 13.3 102430 41
2010-06-22 06:54:07 51°13.627 2°51.79 -999 356 13.3 102430 41
2010-06-22 06:54:12 51°13.628 2°51.793 -999 356 13.3 102430 41
2010-06-22 06:54:17 51°13.629 2°51.795 -999 356 13.3 102430 41
2010-06-22 06:54:21 51°13.629 2°51.798 -999 349 13.3 102440 41
2010-06-22 06:54:27 51°13.63 2°51.801 -999 354 13.3 102440 41
2010-06-22 06:54:32 51°13.631 2°51.804 -999 357 13.3 102430 41
2010-06-22 06:54:37 51°13.631 2°51.807 -999 352 13.3 102430 41
2010-06-22 06:54:42 51°13.632 2°51.811 -999 354 13.3 102430 41
2010-06-22 06:54:47 51°13.632 2°51.815 -999 346 13.3 102430 41
2010-06-22 06:54:52 51°13.632 2°51.82 -999 344 13.3 102430 41
2010-06-22 06:54:57 51°13.633 2°51.825 0.6 340 13.3 102430 41
2010-06-22 06:55:01 51°13.633 2°51.829 0.6 339 13.3 102430 41
2010-06-22 06:55:07 51°13.632 2°51.836 0.7 337 13.3 102430 41
2010-06-22 06:55:12 51°13.632 2°51.842 0.6 335 13.3 102430 41
2010-06-22 06:55:17 51°13.631 2°51.848 0.2 334 13.3 102430 41
2010-06-22 06:55:22 51°13.63 2°51.855 0.5 333 13.3 102430 42
2010-06-22 06:55:27 51°13.629 2°51.861 0.4 334 13.3 102430 42
2010-06-22 06:55:32 51°13.626 2°51.867 0.5 333 13.3 102430 41
2010-06-22 06:55:37 51°13.624 2°51.872 0.9 329 13.3 102430 41
2010-06-22 06:55:41 51°13.622 2°51.876 0.9 329 13.3 102430 41
2010-06-22 06:55:47 51°13.619 2°51.881 1.2 326 13.3 102430 41
2010-06-22 06:55:52 51°13.616 2°51.885 1.1 328 13.3 102430 41
2010-06-22 06:55:57 51°13.612 2°51.889 0.9 321 13.3 102430 41
2010-06-22 06:56:02 51°13.609 2°51.891 0.9 321 13.3 102430 42
2010-06-22 06:56:07 51°13.605 2°51.893 0.8 323 13.3 102430 42
2010-06-22 06:56:12 51°13.601 2°51.893 1.1 324 13.3 102430 39
2010-06-22 06:56:17 51°13.597 2°51.893 0.8 324 13.3 102430 39
2010-06-22 06:56:21 51°13.594 2°51.893 0.5 322 13.4 102430 40
2010-06-22 06:56:27 51°13.59 2°51.89 1.4 321 13.4 102430 40
2010-06-22 06:56:32 51°13.585 2°51.887 1.5 323 13.4 102430 40
2010-06-22 06:56:37 51°13.581 2°51.882 1.7 324 13.4 102430 40
2010-06-22 06:56:41 51°13.578 2°51.877 1.7 323 13.4 102430 40
2010-06-22 06:56:47 51°13.573 2°51.868 2.1 324 13.4 102430 40
2010-06-22 06:56:52 51°13.569 2°51.858 2.1 326 13.4 102430 43
2010-06-22 06:56:57 51°13.565 2°51.849 2.2 328 13.4 102430 43
2010-06-22 06:57:01 51°13.562 2°51.84 2.4 324 13.4 102430 40
2010-06-22 06:57:07 51°13.556 2°51.825 3 326 13.4 102430 40
2010-06-22 06:57:12 51°13.55 2°51.812 3.1 325 13.4 102430 43
2010-06-22 06:57:17 51°13.545 2°51.798 3.5 324 13.4 102430 43
2010-06-22 06:57:22 51°13.539 2°51.783 3.4 328 13.4 102430 39
2010-06-22 06:57:27 51°13.532 2°51.768 3.7 328 13.4 102430 39
2010-06-22 06:57:32 51°13.526 2°51.753 4.4 327 13.4 102420 43
2010-06-22 06:57:37 51°13.519 2°51.736 4.2 329 13.4 102420 43
2010-06-22 06:57:41 51°13.513 2°51.722 4.2 330 13.4 102420 41
2010-06-22 06:57:47 51°13.505 2°51.701 4.4 327 13.4 102420 41
2010-06-22 06:57:52 51°13.498 2°51.682 4.5 330 13.4 102420 42
2010-06-22 06:57:57 51°13.49 2°51.663 5.2 329 13.4 102420 42
2010-06-22 06:58:02 51°13.483 2°51.644 5.1 331 13.4 102430 43
2010-06-22 06:58:07 51°13.475 2°51.624 5.5 328 13.4 102430 43
2010-06-22 06:58:12 51°13.467 2°51.603 5.4 329 13.4 102430 41
2010-06-22 06:58:17 51°13.46 2°51.582 5.7 327 13.4 102430 41
2010-06-22 06:58:21 51°13.452 2°51.565 5.6 330 13.4 102420 39
2010-06-22 06:58:27 51°13.444 2°51.538 5.3 328 13.4 102420 39
2010-06-22 06:58:32 51°13.436 2°51.516 4.9 330 13.4 102420 43
2010-06-22 06:58:37 51°13.429 2°51.492 4.8 327 13.4 102420 43
2010-06-22 06:58:41 51°13.423 2°51.474 5.2 329 13.4 102430 39
2010-06-22 06:58:47 51°13.415 2°51.445 5.7 328 13.4 102430 39
2010-06-22 06:58:52 51°13.408 2°51.421 5.4 329 13.4 102420 40
2010-06-22 06:58:57 51°13.401 2°51.396 5.5 328 13.4 102420 40
2010-06-22 06:59:01 51°13.395 2°51.377 5.6 329 13.4 102420 39
2010-06-22 06:59:07 51°13.388 2°51.348 5.7 329 13.4 102420 39
2010-06-22 06:59:12 51°13.381 2°51.324 5.6 328 13.3 102420 38
2010-06-22 06:59:17 51°13.374 2°51.299 5.2 329 13.3 102420 38
2010-06-22 06:59:22 51°13.368 2°51.275 5.3 330 13.3 102430 43
2010-06-22 06:59:27 51°13.361 2°51.25 5.4 329 13.3 102430 43
2010-06-22 06:59:32 51°13.354 2°51.226 5.7 326 13.4 102420 40
2010-06-22 06:59:37 51°13.347 2°51.201 5.7 329 13.4 102420 40
2010-06-22 06:59:41 51°13.342 2°51.182 5.6 328 13.3 102430 40
2010-06-22 06:59:47 51°13.334 2°51.153 5.7 328 13.3 102430 40
2010-06-22 06:59:52 51°13.327 2°51.128 5.6 329 13.3 102420 39
2010-06-22 06:59:57 51°13.321 2°51.104 5.6 326 13.3 102420 39
2010-06-22 07:00:02 51°13.314 2°51.08 5.9 329 13.3 102420 40
2010-06-22 07:00:07 51°13.308 2°51.055 5.1 327 13.3 102420 40
2010-06-22 07:00:12 51°13.3 2°51.031 5 327 13.3 102420 40
2010-06-22 07:00:17 51°13.295 2°51.006 5.3 327 13.3 102420 40
2010-06-22 07:00:21 51°13.287 2°50.988 5.4 329 13.3 102430 43
2010-06-22 07:00:27 51°13.279 2°50.959 5.7 328 13.3 102430 43
2010-06-22 07:00:32 51°13.271 2°50.936 5.3 327 13.3 102420 40
2010-06-22 07:00:37 51°13.263 2°50.912 5.5 331 13.3 102420 40
2010-06-22 07:00:42 51°13.256 2°50.889 5.4 330 13.3 102430 42
2010-06-22 07:00:47 51°13.247 2°50.866 5.6 330 13.3 102430 42
2010-06-22 07:00:52 51°13.24 2°50.842 5.6 327 13.2 102430 39
2010-06-22 07:00:57 51°13.231 2°50.819 5.7 328 13.2 102430 39
2010-06-22 07:01:01 51°13.225 2°50.801 6 329 13.2 102430 39
2010-06-22 07:01:07 51°13.215 2°50.773 5.4 327 13.2 102430 39
2010-06-22 07:01:12 51°13.206 2°50.75 5.4 328 13.3 102420 39
2010-06-22 07:01:17 51°13.198 2°50.727 5 328 13.3 102420 39
2010-06-22 07:01:21 51°13.192 2°50.709 5 330 13.2 102420 39
2010-06-22 07:01:27 51°13.181 2°50.681 5.2 328 13.2 102420 39
2010-06-22 07:01:32 51°13.173 2°50.658 5.2 328 13.2 102430 40
2010-06-22 07:01:37 51°13.165 2°50.635 5.5 328 13.2 102430 40
2010-06-22 07:01:41 51°13.158 2°50.616 5 327 13.2 102430 39
2010-06-22 07:01:47 51°13.148 2°50.589 5.1 331 13.2 102430 39
2010-06-22 07:01:52 51°13.14 2°50.565 5.2 326 13.2 102420 39
2010-06-22 07:01:57 51°13.132 2°50.542 5.1 330 13.2 102420 39
2010-06-22 07:02:01 51°13.125 2°50.523 5.2 329 13.2 102430 39
2010-06-22 07:02:07 51°13.116 2°50.496 6 327 13.2 102430 39
2010-06-22 07:02:12 51°13.107 2°50.473 5.9 325 13.2 102430 39
2010-06-22 07:02:17 51°13.099 2°50.449 5.5 323 13.2 102430 39
2010-06-22 07:02:21 51°13.092 2°50.432 5.1 325 13.2 102420 40
2010-06-22 07:02:27 51°13.083 2°50.403 5.4 325 13.2 102420 40
2010-06-22 07:02:32 51°13.073 2°50.38 5.5 324 13.2 102420 39
2010-06-22 07:02:37 51°13.066 2°50.356 5.5 325 13.2 102420 39
2010-06-22 07:02:42 51°13.057 2°50.334 5.4 324 13.2 102430 40
2010-06-22 07:02:47 51°13.05 2°50.31 5.4 326 13.2 102430 40
2010-06-22 07:02:52 51°13.041 2°50.288 5.2 324 13.2 102430 42
2010-06-22 07:02:57 51°13.033 2°50.264 5.7 328 13.2 102430 42
2010-06-22 07:03:02 51°13.025 2°50.241 5.4 326 13.2 102430 43
2010-06-22 07:03:07 51°13.016 2°50.218 5.2 328 13.2 102430 43
2010-06-22 07:03:12 51°13.008 2°50.195 5.3 327 13.2 102420 40
2010-06-22 07:03:17 51°13 2°50.172 5.3 328 13.2 102420 40
2010-06-22 07:03:22 51°12.992 2°50.149 5.6 328 13.2 102420 39
2010-06-22 07:03:27 51°12.984 2°50.126 5.8 327 13.2 102420 39
2010-06-22 07:03:32 51°12.975 2°50.103 5.5 324 13.2 102420 40
2010-06-22 07:03:37 51°12.967 2°50.079 5.3 329 13.2 102420 40
2010-06-22 07:03:41 51°12.96 2°50.061 5.3 326 13.2 102420 43
2010-06-22 07:03:47 51°12.951 2°50.033 5.2 327 13.2 102420 43
2010-06-22 07:03:52 51°12.941 2°50.011 5.5 326 13.2 102420 41
2010-06-22 07:03:57 51°12.934 2°49.988 5.4 325 13.2 102420 41
2010-06-22 07:04:01 51°12.926 2°49.97 5.5 327 13.2 102430 42
2010-06-22 07:04:07 51°12.917 2°49.942 5.1 328 13.2 102430 42
2010-06-22 07:04:12 51°12.909 2°49.919 5.5 328 13.2 102420 41
2010-06-22 07:04:17 51°12.901 2°49.896 5.9 327 13.2 102420 41
2010-06-22 07:04:21 51°12.894 2°49.877 5.5 328 13.2 102430 39
2010-06-22 07:04:27 51°12.884 2°49.85 5.4 327 13.2 102430 39
2010-06-22 07:04:32 51°12.876 2°49.827 5.9 327 13.2 102430 38
2010-06-22 07:04:37 51°12.868 2°49.804 5.4 330 13.2 102430 38
2010-06-22 07:04:42 51°12.86 2°49.781 5.8 328 13.2 102430 40
2010-06-22 07:04:47 51°12.851 2°49.758 5.3 329 13.2 102430 40
2010-06-22 07:04:52 51°12.843 2°49.735 5.4 327 13.2 102430 39
2010-06-22 07:04:57 51°12.835 2°49.711 5.7 331 13.2 102430 39
2010-06-22 07:05:01 51°12.829 2°49.693 5.7 326 13.2 102430 42
2010-06-22 07:05:07 51°12.818 2°49.665 5.6 330 13.2 102430 42
2010-06-22 07:05:12 51°12.811 2°49.641 5.5 328 13.2 102430 42
2010-06-22 07:05:17 51°12.802 2°49.619 5.8 329 13.2 102430 42
2010-06-22 07:05:22 51°12.794 2°49.595 5.8 328 13.2 102430 40
2010-06-22 07:05:27 51°12.786 2°49.572 5.5 329 13.2 102430 40
2010-06-22 07:05:32 51°12.777 2°49.549 5.5 328 13.2 102430 39
2010-06-22 07:05:37 51°12.769 2°49.526 5.4 330 13.2 102430 39
2010-06-22 07:05:41 51°12.763 2°49.507 5.2 327 13.2 102430 39
2010-06-22 07:05:47 51°12.752 2°49.48 5.4 333 13.2 102430 39
2010-06-22 07:05:52 51°12.746 2°49.456 5.1 331 13.2 102430 42
2010-06-22 07:05:57 51°12.735 2°49.434 4.8 331 13.2 102430 42
2010-06-22 07:06:01 51°12.73 2°49.414 5 332 13.2 102430 42
2010-06-22 07:06:07 51°12.719 2°49.388 5.2 331 13.2 102430 42
2010-06-22 07:06:12 51°12.712 2°49.364 5.3 330 13.2 102430 39
2010-06-22 07:06:17 51°12.704 2°49.34 5.7 328 13.2 102430 39
2010-06-22 07:06:21 51°12.697 2°49.322 5.6 329 13.2 102440 41
2010-06-22 07:06:27 51°12.687 2°49.294 5.9 328 13.2 102440 41
2010-06-22 07:06:32 51°12.679 2°49.271 5.6 330 13.2 102430 39
2010-06-22 07:06:37 51°12.671 2°49.248 5.5 326 13.2 102430 39
2010-06-22 07:06:42 51°12.662 2°49.225 5.2 329 13.2 102430 42
2010-06-22 07:06:47 51°12.655 2°49.201 5.6 323 13.2 102430 42
2010-06-22 07:06:52 51°12.645 2°49.179 5.5 327 13.2 102430 39
2010-06-22 07:06:57 51°12.639 2°49.155 6.1 324 13.2 102430 39
2010-06-22 07:07:01 51°12.631 2°49.137 5.3 326 13.2 102430 41
2010-06-22 07:07:07 51°12.621 2°49.109 5.6 327 13.2 102430 41
2010-06-22 07:07:12 51°12.614 2°49.085 5.5 327 13.2 102430 39
2010-06-22 07:07:17 51°12.605 2°49.063 4.9 325 13.2 102430 39
2010-06-22 07:07:22 51°12.597 2°49.039 4.9 330 13.2 102430 39
2010-06-22 07:07:27 51°12.589 2°49.017 5.6 326 13.2 102430 39
2010-06-22 07:07:32 51°12.58 2°48.993 5.4 329 13.2 102440 40
2010-06-22 07:07:37 51°12.572 2°48.97 5.4 325 13.2 102440 40
2010-06-22 07:07:41 51°12.565 2°48.952 5.3 329 13.2 102430 40
2010-06-22 07:07:47 51°12.556 2°48.924 5.3 325 13.2 102430 40
2010-06-22 07:07:52 51°12.547 2°48.901 5 330 13.2 102430 39
2010-06-22 07:07:57 51°12.54 2°48.878 4.9 326 13.2 102430 39
2010-06-22 07:08:01 51°12.532 2°48.86 5.1 330 13.2 102430 39
2010-06-22 07:08:07 51°12.523 2°48.832 5.2 327 13.2 102430 39
2010-06-22 07:08:12 51°12.515 2°48.808 5.5 329 13.2 102430 39
2010-06-22 07:08:17 51°12.507 2°48.786 5.6 328 13.2 102430 39
2010-06-22 07:08:21 51°12.499 2°48.768 5.4 327 13.2 102430 43
2010-06-22 07:08:27 51°12.49 2°48.739 5.9 325 13.2 102430 43
2010-06-22 07:08:32 51°12.481 2°48.717 5.6 328 13.2 102430 39
2010-06-22 07:08:37 51°12.473 2°48.694 5.3 326 13.2 102430 39
2010-06-22 07:08:42 51°12.465 2°48.671 5.4 330 13.2 102430 42
2010-06-22 07:08:47 51°12.457 2°48.648 5.1 327 13.2 102430 42
2010-06-22 07:08:52 51°12.448 2°48.626 5.4 328 13.2 102430 39
2010-06-22 07:08:57 51°12.44 2°48.602 5.5 328 13.2 102430 39
2010-06-22 07:09:01 51°12.433 2°48.584 5.4 326 13.2 102430 40
2010-06-22 07:09:07 51°12.423 2°48.557 5.6 329 13.2 102430 40
2010-06-22 07:09:12 51°12.415 2°48.533 5.6 328 13.2 102430 42
2010-06-22 07:09:17 51°12.407 2°48.511 5.2 331 13.2 102430 42
2010-06-22 07:09:22 51°12.399 2°48.487 5 329 13.2 102430 42
2010-06-22 07:09:27 51°12.39 2°48.465 5.1 328 13.2 102430 42
2010-06-22 07:09:32 51°12.383 2°48.441 4.9 329 13.2 102430 40
2010-06-22 07:09:37 51°12.374 2°48.419 5.3 327 13.2 102430 40
2010-06-22 07:09:41 51°12.368 2°48.4 5.3 328 13.2 102430 41
2010-06-22 07:09:47 51°12.358 2°48.372 5.2 327 13.2 102430 41
2010-06-22 07:09:52 51°12.349 2°48.349 5.7 328 13.2 102430 41
2010-06-22 07:09:57 51°12.342 2°48.325 5.1 326 13.2 102430 41
2010-06-22 07:10:02 51°12.333 2°48.303 5.1 328 13.2 102430 40
2010-06-22 07:10:07 51°12.326 2°48.279 5.1 327 13.2 102430 40
2010-06-22 07:10:12 51°12.317 2°48.256 5.6 327 13.2 102430 39
2010-06-22 07:10:17 51°12.309 2°48.233 5.5 328 13.2 102430 39
2010-06-22 07:10:21 51°12.302 2°48.214 5.4 332 13.2 102430 42
2010-06-22 07:10:27 51°12.293 2°48.186 5.8 328 13.2 102430 42
2010-06-22 07:10:32 51°12.284 2°48.163 5.3 329 13.2 102430 39
2010-06-22 07:10:37 51°12.277 2°48.139 5.7 327 13.2 102430 39
2010-06-22 07:10:42 51°12.268 2°48.117 5.1 328 13.2 102430 39
2010-06-22 07:10:47 51°12.26 2°48.093 5.5 329 13.2 102430 39
2010-06-22 07:10:52 51°12.252 2°48.069 4.7 329 13.2 102430 42
2010-06-22 07:10:57 51°12.243 2°48.046 5 329 13.2 102430 42
2010-06-22 07:11:01 51°12.238 2°48.027 4.8 329 13.2 102430 39
2010-06-22 07:11:07 51°12.227 2°48 5.3 328 13.2 102430 39
2010-06-22 07:11:12 51°12.219 2°47.976 5.2 326 13.2 102430 42
2010-06-22 07:11:17 51°12.211 2°47.953 5.3 328 13.2 102430 42
2010-06-22 07:11:22 51°12.202 2°47.93 4.8 328 13.2 102430 39
2010-06-22 07:11:27 51°12.194 2°47.906 5.2 331 13.2 102430 39
2010-06-22 07:11:32 51°12.186 2°47.883 5.3 329 13.2 102430 42
2010-06-22 07:11:37 51°12.177 2°47.859 4.9 330 13.2 102430 42
2010-06-22 07:11:41 51°12.171 2°47.84 5.1 328 13.2 102430 42
2010-06-22 07:11:47 51°12.161 2°47.812 5.8 327 13.2 102430 42
2010-06-22 07:11:52 51°12.153 2°47.789 5.3 328 13.2 102430 42
2010-06-22 07:11:57 51°12.145 2°47.766 5.2 327 13.2 102430 42
2010-06-22 07:12:01 51°12.138 2°47.747 6 327 13.2 102430 42
2010-06-22 07:12:07 51°12.128 2°47.719 5.2 326 13.2 102430 42
2010-06-22 07:12:12 51°12.119 2°47.696 5.2 327 13.2 102430 42
2010-06-22 07:12:17 51°12.112 2°47.672 4.9 327 13.2 102430 42
2010-06-22 07:12:21 51°12.105 2°47.654 5.1 326 13.2 102430 41
2010-06-22 07:12:27 51°12.095 2°47.625 5 325 13.2 102430 41
2010-06-22 07:12:32 51°12.086 2°47.603 5.1 325 13.2 102430 38
2010-06-22 07:12:37 51°12.078 2°47.579 5.3 327 13.2 102430 38
2010-06-22 07:12:41 51°12.071 2°47.561 5.3 328 13.2 102430 39
2010-06-22 07:12:47 51°12.062 2°47.533 4.8 327 13.2 102430 39
2010-06-22 07:12:52 51°12.054 2°47.51 4.9 329 13.2 102430 39
2010-06-22 07:12:57 51°12.045 2°47.486 5.8 329 13.2 102430 39
2010-06-22 07:13:01 51°12.039 2°47.467 5.7 330 13.2 102430 42
2010-06-22 07:13:07 51°12.028 2°47.44 5.1 327 13.2 102430 42
2010-06-22 07:13:12 51°12.021 2°47.416 5.2 330 13.2 102430 40
2010-06-22 07:13:17 51°12.013 2°47.392 4.8 326 13.2 102430 40
2010-06-22 07:13:21 51°12.006 2°47.374 5 327 13.2 102430 40
2010-06-22 07:13:27 51°11.998 2°47.345 4.7 325 13.2 102430 40
2010-06-22 07:13:32 51°11.989 2°47.322 4.9 324 13.2 102430 39
2010-06-22 07:13:37 51°11.983 2°47.297 4.8 325 13.2 102430 39
2010-06-22 07:13:42 51°11.974 2°47.274 4.8 324 13.2 102430 42
2010-06-22 07:13:47 51°11.968 2°47.249 4.6 328 13.2 102430 42
2010-06-22 07:13:52 51°11.96 2°47.226 4.7 322 13.2 102430 41
2010-06-22 07:13:57 51°11.953 2°47.202 4.9 326 13.2 102430 41
2010-06-22 07:14:01 51°11.947 2°47.183 5 325 13.3 102430 40
2010-06-22 07:14:07 51°11.938 2°47.154 4.9 324 13.3 102430 40
2010-06-22 07:14:12 51°11.931 2°47.13 4.6 326 13.2 102430 42
2010-06-22 07:14:17 51°11.924 2°47.106 5 325 13.2 102430 42
2010-06-22 07:14:22 51°11.916 2°47.083 4.8 328 13.3 102430 42
2010-06-22 07:14:27 51°11.908 2°47.059 5.1 329 13.3 102430 42
2010-06-22 07:14:32 51°11.902 2°47.034 5.6 329 13.3 102430 39
2010-06-22 07:14:37 51°11.894 2°47.011 5.3 327 13.3 102430 39
2010-06-22 07:14:41 51°11.889 2°46.991 5 330 13.3 102430 43
2010-06-22 07:14:47 51°11.88 2°46.962 5.2 328 13.3 102430 43
2010-06-22 07:14:52 51°11.874 2°46.938 4.8 329 13.3 102430 41
2010-06-22 07:14:57 51°11.866 2°46.914 4.9 331 13.3 102430 41
2010-06-22 07:15:02 51°11.86 2°46.889 5.3 328 13.3 102420 41
2010-06-22 07:15:07 51°11.853 2°46.865 4.9 329 13.3 102420 41
2010-06-22 07:15:12 51°11.847 2°46.84 4.6 328 13.3 102430 38
2010-06-22 07:15:17 51°11.84 2°46.815 5.1 328 13.3 102430 38
2010-06-22 07:15:21 51°11.836 2°46.795 4.7 329 13.3 102430 42
2010-06-22 07:15:27 51°11.829 2°46.765 4.8 327 13.3 102430 42
2010-06-22 07:15:32 51°11.824 2°46.74 4.8 330 13.3 102430 43
2010-06-22 07:15:37 51°11.819 2°46.715 4.9 325 13.3 102430 43
2010-06-22 07:15:42 51°11.813 2°46.689 4.8 330 13.3 102430 39
2010-06-22 07:15:47 51°11.808 2°46.664 5 326 13.3 102430 39
2010-06-22 07:15:52 51°11.803 2°46.639 4.6 326 13.3 102430 41
2010-06-22 07:15:57 51°11.798 2°46.613 4.5 327 13.3 102430 41
2010-06-22 07:16:01 51°11.794 2°46.593 4.5 327 13.3 102420 42
2010-06-22 07:16:07 51°11.787 2°46.563 4.8 327 13.3 102420 42
2010-06-22 07:16:12 51°11.782 2°46.537 4.6 328 13.3 102430 39
2010-06-22 07:16:17 51°11.777 2°46.512 5.2 324 13.3 102430 39
2010-06-22 07:16:22 51°11.772 2°46.486 4.5 328 13.3 102440 40
2010-06-22 07:16:27 51°11.767 2°46.461 4.8 325 13.3 102440 40
2010-06-22 07:16:32 51°11.761 2°46.436 5 327 13.3 102430 39
2010-06-22 07:16:37 51°11.757 2°46.41 5 327 13.3 102430 39
2010-06-22 07:16:41 51°11.752 2°46.39 4.7 327 13.3 102430 41
2010-06-22 07:16:47 51°11.746 2°46.36 4.8 325 13.3 102430 41
2010-06-22 07:16:52 51°11.741 2°46.334 4.7 328 13.4 102430 39
2010-06-22 07:16:57 51°11.736 2°46.309 5.1 325 13.4 102430 39
2010-06-22 07:17:01 51°11.731 2°46.289 4.9 328 13.3 102430 40
2010-06-22 07:17:07 51°11.725 2°46.258 4.9 323 13.3 102430 40
2010-06-22 07:17:12 51°11.72 2°46.233 4.7 327 13.3 102430 40
2010-06-22 07:17:17 51°11.715 2°46.208 5.1 327 13.3 102430 40
2010-06-22 07:17:21 51°11.71 2°46.188 4.9 326 13.4 102430 39
2010-06-22 07:17:27 51°11.704 2°46.157 4.3 329 13.4 102430 39
2010-06-22 07:17:32 51°11.699 2°46.132 4.5 326 13.3 102430 41
2010-06-22 07:17:37 51°11.693 2°46.107 4.2 330 13.3 102430 41
2010-06-22 07:17:42 51°11.688 2°46.081 4.5 328 13.3 102430 42
2010-06-22 07:17:47 51°11.682 2°46.057 4.5 328 13.3 102430 42
2010-06-22 07:17:52 51°11.677 2°46.031 4.8 327 13.4 102430 41
2010-06-22 07:17:57 51°11.672 2°46.006 4.8 327 13.4 102430 41
2010-06-22 07:18:01 51°11.667 2°45.986 4.9 326 13.4 102430 39
2010-06-22 07:18:07 51°11.662 2°45.955 5.1 325 13.4 102430 39
2010-06-22 07:18:12 51°11.655 2°45.93 4.9 325 13.4 102430 43
2010-06-22 07:18:17 51°11.651 2°45.904 5 326 13.4 102430 43
2010-06-22 07:18:22 51°11.645 2°45.879 4.9 328 13.4 102420 40
2010-06-22 07:18:27 51°11.64 2°45.854 4.9 329 13.4 102420 40
2010-06-22 07:18:32 51°11.635 2°45.828 4.3 328 13.4 102430 39
2010-06-22 07:18:37 51°11.629 2°45.803 4.5 327 13.4 102430 39
2010-06-22 07:18:42 51°11.624 2°45.778 5 327 13.3 102430 41
2010-06-22 07:18:47 51°11.618 2°45.753 4.6 327 13.3 102430 41
2010-06-22 07:18:52 51°11.613 2°45.727 5 327 13.4 102440 40
2010-06-22 07:18:57 51°11.607 2°45.702 4.8 326 13.4 102440 40
2010-06-22 07:19:01 51°11.603 2°45.682 4.9 326 13.4 102430 41
2010-06-22 07:19:07 51°11.597 2°45.651 4.8 327 13.4 102430 41
2010-06-22 07:19:12 51°11.591 2°45.626 4.4 328 13.4 102430 41
2010-06-22 07:19:17 51°11.586 2°45.6 5 327 13.4 102430 41
2010-06-22 07:19:21 51°11.581 2°45.58 4.7 329 13.4 102430 43
2010-06-22 07:19:27 51°11.575 2°45.55 4.4 326 13.4 102430 43
2010-06-22 07:19:32 51°11.569 2°45.525 5 327 13.4 102430 39
2010-06-22 07:19:37 51°11.565 2°45.499 5.2 326 13.4 102430 39
2010-06-22 07:19:41 51°11.559 2°45.479 5.3 327 13.4 102430 42
2010-06-22 07:19:47 51°11.554 2°45.448 5 325 13.4 102430 42
2010-06-22 07:19:52 51°11.547 2°45.424 4.9 328 13.4 102430 42
2010-06-22 07:19:57 51°11.543 2°45.398 5.3 326 13.4 102430 42
2010-06-22 07:20:02 51°11.537 2°45.373 4.5 326 13.4 102420 40
2010-06-22 07:20:07 51°11.532 2°45.348 5.1 328 13.4 102420 40
2010-06-22 07:20:12 51°11.526 2°45.323 4.9 327 13.4 102430 42
2010-06-22 07:20:17 51°11.52 2°45.297 4.8 325 13.4 102430 42
2010-06-22 07:20:21 51°11.516 2°45.277 4.5 325 13.4 102430 41
2010-06-22 07:20:27 51°11.509 2°45.247 5 327 13.4 102430 41
2010-06-22 07:20:32 51°11.504 2°45.221 4.3 327 13.4 102430 38
2010-06-22 07:20:37 51°11.498 2°45.197 4.2 326 13.4 102430 38
2010-06-22 07:20:42 51°11.493 2°45.171 4.8 325 13.4 102430 39
2010-06-22 07:20:47 51°11.488 2°45.146 4.5 326 13.4 102430 39
2010-06-22 07:20:52 51°11.482 2°45.121 4.2 327 13.4 102430 42
2010-06-22 07:20:57 51°11.477 2°45.095 4.4 325 13.4 102430 42
2010-06-22 07:21:02 51°11.472 2°45.07 4.6 328 13.4 102430 39
2010-06-22 07:21:07 51°11.466 2°45.045 5.5 326 13.4 102430 39
2010-06-22 07:21:12 51°11.462 2°45.019 4.8 331 13.4 102430 39
2010-06-22 07:21:17 51°11.456 2°44.994 5 326 13.4 102430 39
2010-06-22 07:21:21 51°11.452 2°44.974 4.9 330 13.4 102430 39
2010-06-22 07:21:27 51°11.445 2°44.944 4.6 326 13.4 102430 39
2010-06-22 07:21:32 51°11.439 2°44.919 4.7 328 13.4 102430 42
2010-06-22 07:21:37 51°11.435 2°44.893 4.6 325 13.4 102430 42
2010-06-22 07:21:41 51°11.43 2°44.874 4.4 329 13.4 102430 39
2010-06-22 07:21:47 51°11.423 2°44.843 4.5 328 13.4 102430 39
2010-06-22 07:21:52 51°11.418 2°44.818 4.4 328 13.4 102420 39
2010-06-22 07:21:57 51°11.412 2°44.793 5.1 329 13.4 102420 39
2010-06-22 07:22:01 51°11.409 2°44.772 4.6 326 13.4 102430 39
2010-06-22 07:22:07 51°11.401 2°44.743 4.3 327 13.4 102430 39
2010-06-22 07:22:12 51°11.396 2°44.717 4.8 328 13.4 102430 40
2010-06-22 07:22:17 51°11.391 2°44.692 4.8 329 13.4 102430 40
2010-06-22 07:22:21 51°11.386 2°44.672 4.2 325 13.4 102430 39
2010-06-22 07:22:27 51°11.379 2°44.642 4.8 329 13.4 102430 39
2010-06-22 07:22:32 51°11.374 2°44.617 4.8 330 13.4 102430 39
2010-06-22 07:22:37 51°11.368 2°44.593 4.4 328 13.4 102430 39
2010-06-22 07:22:42 51°11.363 2°44.567 4.3 331 13.4 102420 40
2010-06-22 07:22:47 51°11.357 2°44.543 4.2 330 13.4 102420 40
2010-06-22 07:22:52 51°11.352 2°44.518 4.7 331 13.4 102430 39
2010-06-22 07:22:57 51°11.346 2°44.493 4.6 329 13.4 102430 39
2010-06-22 07:23:01 51°11.342 2°44.473 5 330 13.4 102430 39
2010-06-22 07:23:07 51°11.336 2°44.443 5.3 330 13.4 102430 39
2010-06-22 07:23:12 51°11.331 2°44.418 5.1 330 13.4 102430 39
2010-06-22 07:23:17 51°11.325 2°44.393 4.5 330 13.4 102430 39
2010-06-22 07:23:21 51°11.321 2°44.373 4.8 331 13.4 102430 39
2010-06-22 07:23:27 51°11.314 2°44.343 4.7 329 13.4 102430 39
2010-06-22 07:23:32 51°11.309 2°44.319 4.4 327 13.4 102420 39
2010-06-22 07:23:37 51°11.304 2°44.294 4.1 329 13.4 102420 39
2010-06-22 07:23:41 51°11.299 2°44.274 4.6 329 13.4 102430 40
2010-06-22 07:23:47 51°11.292 2°44.245 3.9 329 13.4 102430 40
2010-06-22 07:23:52 51°11.287 2°44.22 4 329 13.4 102420 42
2010-06-22 07:23:57 51°11.282 2°44.196 4.6 329 13.4 102420 42
2010-06-22 07:24:01 51°11.277 2°44.176 4.5 326 13.4 102430 42
2010-06-22 07:24:07 51°11.272 2°44.146 4.2 325 13.4 102430 42
2010-06-22 07:24:12 51°11.265 2°44.122 4.2 325 13.4 102430 42
2010-06-22 07:24:17 51°11.261 2°44.097 5 327 13.4 102430 42
2010-06-22 07:24:21 51°11.256 2°44.078 5 325 13.4 102430 40
2010-06-22 07:24:27 51°11.25 2°44.048 4.9 326 13.4 102430 40
2010-06-22 07:24:32 51°11.244 2°44.024 5.1 326 13.4 102430 40
2010-06-22 07:24:37 51°11.239 2°43.999 4.8 330 13.4 102430 40
2010-06-22 07:24:42 51°11.234 2°43.974 5.4 325 13.4 102430 40
2010-06-22 07:24:47 51°11.229 2°43.95 5.2 331 13.4 102430 40
2010-06-22 07:24:52 51°11.224 2°43.926 5.2 323 13.4 102430 40
2010-06-22 07:24:57 51°11.219 2°43.901 4.3 331 13.4 102430 40
2010-06-22 07:25:01 51°11.214 2°43.881 4.7 325 13.5 102430 41
2010-06-22 07:25:07 51°11.208 2°43.852 5.2 327 13.5 102430 41
2010-06-22 07:25:12 51°11.202 2°43.828 4.9 324 13.5 102420 42
2010-06-22 07:25:17 51°11.197 2°43.803 4.9 328 13.5 102420 42
2010-06-22 07:25:22 51°11.192 2°43.779 4.8 328 13.4 102420 41
2010-06-22 07:25:27 51°11.187 2°43.755 5 329 13.4 102420 41
2010-06-22 07:25:32 51°11.181 2°43.731 5.5 327 13.5 102430 39
2010-06-22 07:25:37 51°11.175 2°43.706 5.1 330 13.5 102430 39
2010-06-22 07:25:41 51°11.171 2°43.687 5.3 328 13.5 102430 40
2010-06-22 07:25:47 51°11.164 2°43.658 5.3 327 13.5 102430 40
2010-06-22 07:25:52 51°11.158 2°43.634 4.7 329 13.5 102430 39
2010-06-22 07:25:57 51°11.153 2°43.609 4.9 330 13.5 102430 39
2010-06-22 07:26:01 51°11.149 2°43.59 5.1 330 13.5 102430 42
2010-06-22 07:26:07 51°11.142 2°43.561 4.6 330 13.5 102430 42
2010-06-22 07:26:12 51°11.136 2°43.536 4.7 327 13.5 102430 42
2010-06-22 07:26:17 51°11.131 2°43.512 4.9 327 13.5 102430 42
2010-06-22 07:26:21 51°11.128 2°43.492 4.9 324 13.5 102430 42
2010-06-22 07:26:27 51°11.122 2°43.463 4.9 328 13.5 102430 42
2010-06-22 07:26:32 51°11.118 2°43.437 5 328 13.5 102430 42
2010-06-22 07:26:37 51°11.113 2°43.413 5 330 13.5 102430 42
2010-06-22 07:26:42 51°11.11 2°43.388 5.1 330 13.5 102430 41
2010-06-22 07:26:47 51°11.106 2°43.363 5.4 330 13.5 102430 41
2010-06-22 07:26:52 51°11.102 2°43.338 5.2 324 13.5 102430 40
2010-06-22 07:26:57 51°11.098 2°43.313 5.1 327 13.5 102430 40
2010-06-22 07:27:01 51°11.095 2°43.293 5.4 324 13.5 102420 41
2010-06-22 07:27:07 51°11.091 2°43.263 5.4 329 13.5 102420 41
2010-06-22 07:27:12 51°11.088 2°43.238 5.5 326 13.5 102420 39
2010-06-22 07:27:17 51°11.085 2°43.212 5.1 328 13.5 102420 39
2010-06-22 07:27:22 51°11.083 2°43.187 5.2 329 13.5 102420 39
2010-06-22 07:27:27 51°11.08 2°43.161 4.8 329 13.5 102420 39
2010-06-22 07:27:32 51°11.078 2°43.136 4.7 330 13.5 102430 40
2010-06-22 07:27:37 51°11.076 2°43.11 4.5 329 13.5 102430 40
2010-06-22 07:27:41 51°11.074 2°43.089 4.7 329 13.5 102430 42
2010-06-22 07:27:47 51°11.072 2°43.058 4.6 327 13.5 102430 42
2010-06-22 07:27:52 51°11.069 2°43.033 5 328 13.5 102430 39
2010-06-22 07:27:57 51°11.067 2°43.007 4.7 327 13.5 102430 39
2010-06-22 07:28:01 51°11.065 2°42.987 5.5 326 13.5 102430 41
2010-06-22 07:28:07 51°11.063 2°42.956 5.4 328 13.5 102430 41
2010-06-22 07:28:12 51°11.06 2°42.93 5.1 326 13.5 102430 39
2010-06-22 07:28:17 51°11.058 2°42.904 5.4 327 13.5 102430 39
2010-06-22 07:28:21 51°11.057 2°42.884 5.3 326 13.5 102430 42
2010-06-22 07:28:27 51°11.056 2°42.853 5.1 329 13.5 102430 42
2010-06-22 07:28:32 51°11.055 2°42.827 5.2 327 13.5 102430 40
2010-06-22 07:28:37 51°11.056 2°42.801 5.3 327 13.5 102430 40
2010-06-22 07:28:42 51°11.056 2°42.775 5 326 13.5 102430 41
2010-06-22 07:28:47 51°11.058 2°42.749 5.2 329 13.5 102430 41
2010-06-22 07:28:52 51°11.059 2°42.723 5.4 326 13.5 102430 42
2010-06-22 07:28:57 51°11.061 2°42.697 4.5 326 13.5 102430 42
2010-06-22 07:29:01 51°11.063 2°42.676 4.9 327 13.5 102430 39
2010-06-22 07:29:07 51°11.066 2°42.647 4.5 327 13.5 102430 39
2010-06-22 07:29:12 51°11.069 2°42.624 4.4 329 13.5 102430 39
2010-06-22 07:29:17 51°11.071 2°42.602 4.2 326 13.5 102430 39
2010-06-22 07:29:22 51°11.073 2°42.581 3.9 329 13.5 102420 39
2010-06-22 07:29:27 51°11.075 2°42.56 3.8 330 13.5 102420 39
2010-06-22 07:29:32 51°11.076 2°42.54 3.6 329 13.5 102430 40
2010-06-22 07:29:37 51°11.077 2°42.521 4.2 329 13.5 102430 40
2010-06-22 07:29:41 51°11.078 2°42.506 4.2 327 13.5 102420 39
2010-06-22 07:29:47 51°11.079 2°42.483 3.8 326 13.5 102420 39
2010-06-22 07:29:52 51°11.079 2°42.464 4.2 326 13.5 102430 40
2010-06-22 07:29:57 51°11.079 2°42.446 4.2 324 13.5 102430 40
2010-06-22 07:30:02 51°11.079 2°42.428 4.1 327 13.5 102430 39
2010-06-22 07:30:07 51°11.079 2°42.41 3.6 324 13.5 102430 39
2010-06-22 07:30:12 51°11.079 2°42.392 3.9 327 13.5 102430 40
2010-06-22 07:30:17 51°11.078 2°42.375 3.8 325 13.5 102430 40
2010-06-22 07:30:21 51°11.078 2°42.361 3.8 326 13.5 102430 40
2010-06-22 07:30:27 51°11.078 2°42.34 3.5 326 13.5 102430 40
2010-06-22 07:30:32 51°11.078 2°42.324 3.6 326 13.5 102430 39
2010-06-22 07:30:37 51°11.078 2°42.309 2.6 324 13.5 102430 39
2010-06-22 07:30:41 51°11.078 2°42.297 2.5 323 13.5 102420 43
2010-06-22 07:30:47 51°11.078 2°42.28 2.5 325 13.5 102420 43
2010-06-22 07:30:52 51°11.079 2°42.267 2.5 323 13.5 102430 40
2010-06-22 07:30:57 51°11.079 2°42.254 2.2 326 13.5 102430 40
2010-06-22 07:31:01 51°11.08 2°42.244 2.2 323 13.5 102430 43
2010-06-22 07:31:07 51°11.081 2°42.23 1.5 326 13.5 102430 43
2010-06-22 07:31:12 51°11.083 2°42.219 1.6 324 13.5 102440 38
2010-06-22 07:31:17 51°11.085 2°42.208 1.1 323 13.5 102440 38
2010-06-22 07:31:22 51°11.087 2°42.198 1.3 323 13.5 102430 43
2010-06-22 07:31:27 51°11.089 2°42.188 1 323 13.5 102430 43
2010-06-22 07:31:32 51°11.091 2°42.179 1.3 323 13.5 102440 40
2010-06-22 07:31:37 51°11.094 2°42.17 1 325 13.5 102440 40
2010-06-22 07:31:41 51°11.096 2°42.163 0.9 324 13.5 102440 42
2010-06-22 07:31:47 51°11.099 2°42.152 0.4 322 13.5 102440 42
2010-06-22 07:31:52 51°11.101 2°42.144 0.2 325 13.5 102440 43
2010-06-22 07:31:57 51°11.103 2°42.136 0.1 322 13.5 102440 43
2010-06-22 07:32:02 51°11.106 2°42.128 0.1 320 13.6 102440 41
2010-06-22 07:32:07 51°11.108 2°42.12 1.6 318 13.6 102440 41
2010-06-22 07:32:12 51°11.11 2°42.113 1.3 328 13.6 102440 41
2010-06-22 07:32:17 51°11.112 2°42.106 0.7 317 13.6 102440 41
2010-06-22 07:32:21 51°11.114 2°42.101 0.4 316 13.6 102430 40
2010-06-22 07:32:27 51°11.116 2°42.094 0.1 319 13.6 102430 40
2010-06-22 07:32:32 51°11.118 2°42.089 0.1 322 13.6 102440 41
2010-06-22 07:32:37 51°11.119 2°42.084 -999 318 13.6 102440 41
2010-06-22 07:32:41 51°11.12 2°42.081 -999 317 13.6 102430 40
2010-06-22 07:32:47 51°11.122 2°42.076 0.3 35 13.6 102430 40
2010-06-22 07:32:52 51°11.124 2°42.074 0.3 24 13.6 102440 41
2010-06-22 07:32:57 51°11.125 2°42.071 0.1 233 13.6 102440 41
2010-06-22 07:33:01 51°11.127 2°42.07 0.1 27 13.6 102430 41
2010-06-22 07:33:07 51°11.129 2°42.069 0.2 245 13.6 102430 41
2010-06-22 07:33:12 51°11.131 2°42.068 0.2 22 13.6 102440 41
2010-06-22 07:33:17 51°11.132 2°42.068 0.1 256 13.6 102440 41
2010-06-22 07:33:22 51°11.134 2°42.069 0.1 257 13.7 102440 41
2010-06-22 07:33:27 51°11.135 2°42.069 0.1 263 13.7 102440 41
2010-06-22 07:33:32 51°11.137 2°42.071 0.1 263 13.7 102440 41
2010-06-22 07:33:37 51°11.138 2°42.072 -999 265 13.7 102440 41
2010-06-22 07:33:41 51°11.139 2°42.073 -999 265 13.7 102440 41
2010-06-22 07:33:47 51°11.141 2°42.075 0.1 38 13.7 102440 41
2010-06-22 07:33:52 51°11.143 2°42.077 0.1 25 13.7 102440 40
2010-06-22 07:33:57 51°11.144 2°42.079 -999 35 13.7 102440 40
2010-06-22 07:34:02 51°11.145 2°42.081 -999 24 13.8 102440 41
2010-06-22 07:34:07 51°11.147 2°42.083 -999 36 13.8 102440 41
2010-06-22 07:34:12 51°11.148 2°42.085 -999 24 13.8 102440 41
2010-06-22 07:34:17 51°11.149 2°42.087 -999 35 13.8 102440 41
2010-06-22 07:34:21 51°11.15 2°42.089 -999 24 13.8 102440 41
2010-06-22 07:34:27 51°11.152 2°42.091 -999 35 13.8 102440 41
2010-06-22 07:34:32 51°11.153 2°42.094 -999 24 13.8 102440 41
2010-06-22 07:34:37 51°11.155 2°42.096 -999 35 13.8 102440 41
2010-06-22 07:34:42 51°11.156 2°42.098 -999 24 13.9 102440 41
2010-06-22 07:34:47 51°11.157 2°42.101 -999 35 13.9 102440 41
2010-06-22 07:34:52 51°11.158 2°42.103 -999 24 13.9 102440 41
2010-06-22 07:34:57 51°11.16 2°42.105 -999 35 13.9 102440 41
2010-06-22 07:35:01 51°11.161 2°42.107 -999 24 13.9 102440 41
2010-06-22 07:35:07 51°11.162 2°42.11 -999 41 13.9 102440 41
2010-06-22 07:35:12 51°11.164 2°42.113 -999 39 13.9 102440 41
2010-06-22 07:35:17 51°11.165 2°42.115 -999 41 13.9 102440 41
2010-06-22 07:35:21 51°11.166 2°42.117 -999 41 14 102440 41
2010-06-22 07:35:27 51°11.167 2°42.12 -999 36 14 102440 41
2010-06-22 07:35:32 51°11.169 2°42.123 -999 38 14 102440 41
2010-06-22 07:35:37 51°11.17 2°42.126 -999 41 14 102440 41
2010-06-22 07:35:41 51°11.171 2°42.128 -999 41 14 102440 41
2010-06-22 07:35:47 51°11.173 2°42.131 -999 41 14 102440 41
2010-06-22 07:35:52 51°11.174 2°42.134 -999 41 14.1 102440 41
2010-06-22 07:35:57 51°11.175 2°42.136 -999 41 14.1 102440 41
2010-06-22 07:36:02 51°11.176 2°42.139 -999 41 14.1 102440 41
2010-06-22 07:36:07 51°11.178 2°42.141 -999 40 14.1 102440 41
2010-06-22 07:36:12 51°11.179 2°42.144 -999 38 14.1 102440 41
2010-06-22 07:36:17 51°11.18 2°42.147 -999 33 14.1 102440 41
2010-06-22 07:36:21 51°11.181 2°42.149 -999 32 14.1 102440 41
2010-06-22 07:36:27 51°11.182 2°42.152 -999 31 14.1 102440 41